Location: ActonStarParty
(42.4766°N, 71.4538°W)
Time: 09:02:28
(UTC-05:00)

ISS - Visible Passes

Search period start: 21 November 2017 00:00
Search period end: 01 December 2017 00:00
Orbit: 402 x 407 km, 51.6° (Epoch: 21 November)

Date Brightness Start Highest point End Pass type
(mag) Time Alt. Az. Time Alt. Az. Time Alt. Az.
25 Nov -1.5 17:52:02 10° SSE 17:52:58 13° SSE 17:52:58 13° SSE visible
26 Nov -1.5 18:34:32 10° SW 18:35:49 22° SW 18:35:49 22° SW visible
27 Nov -3.0 17:42:31 10° SSW 17:45:31 34° SE 17:45:53 33° ESE visible
28 Nov -1.9 16:50:58 10° S 16:53:19 18° SE 16:55:41 10° E visible
28 Nov -2.3 18:26:18 10° WSW 18:28:32 37° W 18:28:32 37° W visible
29 Nov -3.9 17:33:52 10° SW 17:37:09 82° SE 17:38:25 34° ENE visible
30 Nov -3.1 16:41:42 10° SSW 16:44:50 42° SE 16:47:57 10° ENE visible
30 Nov -2.2 18:18:24 10° W 18:20:54 29° NW 18:20:54 29° NW visible
